FW4608 Weather Reports


time (UTC)temp
C
wind
direction
speed
KPH
gust
KPH
rain 1hr
cm
rain 24hr
cm
rain mn
cm
humidity
%
barometer
mb
20260831050551 24 309 0.0 0.0 0.00 0.71 0.00 93 1017.0
20260831050053 24 309 0.0 0.0 0.00 0.71 0.00 93 1017.0
20260831045550 24 309 0.0 0.0 0.00 0.71 0.00 93 1017.0
20260831045049 24 309 0.0 0.0 0.00 0.71 0.00 93 1017.1
20260831044554 24 309 0.0 0.0 0.00 0.71 0.00 93 1017.0
20260831044047 24 309 0.0 0.0 0.00 0.71 0.00 93 1017.0
20260831043547 24 309 0.0 0.0 0.00 0.71 0.00 93 1017.0
20260831043045 24 309 0.0 0.0 0.00 0.71 0.00 93 1017.0
20260831042549 24 309 0.0 0.0 0.00 0.71 0.00 93 1017.0
20260831042047 24 309 0.0 0.0 0.00 0.71 0.00 93 1017.0
20260831041548 24 309 0.0 0.0 0.00 0.71 0.00 93 1017.0
20260831041042 24 309 0.0 0.0 0.00 0.71 0.00 93 1017.1
20260831040541 24 309 0.0 0.0 0.00 0.71 0.00 93 1017.1
20260831040040 24 309 0.0 0.0 0.00 0.71 0.00 93 1017.1
20260831035541 24 309 0.0 0.0 0.00 0.71 0.71 93 1017.2
20260831035038 24 309 0.0 0.0 0.00 0.71 0.71 93 1017.2
20260831034546 24 309 0.0 0.0 0.00 0.71 0.71 93 1017.3
20260831034038 25 309 0.0 0.0 0.00 0.71 0.71 93 1017.4
20260831033538 25 309 0.0 0.0 0.00 0.71 0.71 93 1017.4
20260831033038 24 309 0.0 0.0 0.00 0.71 0.71 93 1017.5
20260831032537 25 309 0.0 0.0 0.00 0.71 0.71 93 1017.5
20260831032039 24 309 0.0 0.0 0.00 0.71 0.71 93 1017.5
20260831031536 25 309 0.0 0.0 0.00 0.71 0.71 93 1017.6
20260831031034 24 309 0.0 0.0 0.00 0.71 0.71 93 1017.6
20260831030534 24 309 0.0 0.0 0.00 0.71 0.71 93 1017.6
20260831030033 24 309 0.0 0.0 0.00 0.71 0.71 93 1017.7
20260831025533 24 309 0.0 0.0 0.00 0.71 0.71 93 1017.7
20260831025033 24 309 0.0 0.0 0.00 0.71 0.71 93 1017.7
20260831024535 24 309 0.0 0.0 0.00 0.71 0.71 93 1017.7
20260831024031 24 309 0.0 0.0 0.00 0.71 0.71 93 1017.8
20260831023531 24 309 0.0 0.0 0.00 0.71 0.71 92 1017.9
20260831023029 24 309 0.0 0.0 0.00 0.71 0.71 92 1018.0
20260831022529 24 309 0.0 0.0 0.00 0.71 0.71 92 1017.9
20260831022028 25 309 0.0 0.0 0.00 0.71 0.71 92 1017.8
20260831021530 25 309 0.0 0.0 0.00 0.71 0.71 92 1017.9
20260831021027 25 309 0.0 0.0 0.00 0.71 0.71 92 1017.9
20260831020526 25 309 0.0 0.0 0.00 0.71 0.71 92 1017.9
20260831020026 25 309 0.0 0.0 0.00 0.71 0.71 91 1018.1
20260831015524 25 309 0.0 0.0 0.00 0.71 0.71 91 1018.1
20260831015026 25 309 0.0 0.0 0.00 0.71 0.71 91 1018.0
20260831014528 25 309 0.0 0.0 0.00 0.71 0.71 91 1018.0
20260831014023 25 309 0.0 0.0 0.00 0.71 0.71 91 1018.0
20260831013522 25 309 0.0 0.0 0.00 0.71 0.71 91 1017.9
20260831013022 25 309 0.0 0.0 0.00 0.71 0.71 91 1017.8
20260831012524 25 309 0.0 0.0 0.00 0.71 0.71 90 1017.9
20260831012020 25 309 0.0 0.0 0.00 0.71 0.71 90 1017.9
20260831011533 25 309 0.0 0.0 0.00 0.71 0.71 90 1017.9
20260831011018 25 309 0.0 0.0 0.00 0.71 0.71 90 1017.8
20260831010518 25 309 0.0 0.0 0.00 0.71 0.71 90 1017.8
20260831010016 25 309 0.0 0.0 0.00 0.71 0.71 90 1017.9
20260831005517 25 309 0.0 0.0 0.00 0.71 0.71 90 1017.8
20260831005017 25 309 0.0 0.0 0.00 0.71 0.71 89 1017.8
20260831004516 25 309 0.0 0.0 0.00 0.71 0.71 89 1017.7
20260831004018 25 309 0.0 0.0 0.00 0.71 0.71 89 1017.7
20260831003517 25 314 0.0 0.0 0.00 0.71 0.71 89 1017.5
20260831003014 25 314 0.0 0.0 0.00 0.71 0.71 89 1017.4
20260831002512 25 314 0.0 0.0 0.00 0.71 0.71 88 1017.3
20260831002012 25 314 0.0 0.0 0.00 0.71 0.71 88 1017.4
20260831001511 25 314 0.0 0.0 0.00 0.71 0.71 88 1017.4
20260831001011 26 314 0.0 0.0 0.00 0.71 0.71 88 1017.3
20260831000510 26 314 0.0 0.0 0.00 0.71 0.71 88 1017.1
20260831000011 26 314 0.0 0.0 0.00 0.71 0.71 88 1017.2
20260830235511 26 314 0.0 0.0 0.00 0.71 0.71 87 1017.4
20260830235008 26 314 0.0 0.0 0.00 0.71 0.71 87 1017.3
20260830234508 26 314 0.0 0.0 0.00 0.71 0.71 87 1017.2
20260830234007 26 314 0.0 0.0 0.00 0.71 0.71 87 1017.3
20260830233509 26 313 0.0 0.0 0.00 0.71 0.71 87 1017.3
20260830233006 26 314 0.0 0.0 0.00 0.71 0.71 86 1017.4
20260830232506 26 314 0.0 0.0 0.00 0.71 0.71 86 1017.2
20260830232004 26 314 0.0 0.0 0.00 0.71 0.71 86 1017.2
20260830231504 27 314 0.0 1.6 0.00 0.71 0.71 86 1017.2
20260830231003 27 314 0.0 1.6 0.00 0.71 0.71 85 1017.2
20260830230502 27 359 0.0 1.6 0.00 0.71 0.71 85 1017.2
20260830230002 27 217 0.0 3.2 0.00 0.71 0.71 85 1017.0
20260830225501 27 227 0.0 3.2 0.00 0.71 0.71 85 1017.0
20260830225001 27 306 0.0 1.6 0.00 0.71 0.71 85 1017.0
20260830224601 27 359 0.0 1.6 0.00 0.71 0.71 85 1017.0
20260830224100 27 352 0.0 1.6 0.00 0.71 0.71 85 1017.1
20260830223600 27 299 0.0 4.8 0.00 0.71 0.71 85 1017.1
20260830223112 28 279 0.0 4.8 0.00 0.71 0.71 85 1017.2
20260830222559 28 304 0.0 3.2 0.00 0.71 0.71 85 1016.9
20260830222059 28 304 0.0 6.4 0.00 0.71 0.71 84 1016.9
20260830221557 28 3 0.0 6.4 0.00 0.71 0.71 83 1016.8
20260830221056 29 303 0.0 4.8 0.00 0.71 0.71 84 1016.7
20260830220557 29 332 0.0 4.8 0.00 0.71 0.71 83 1016.6
20260830220056 29 352 0.0 4.8 0.00 0.71 0.71 84 1016.5
20260830215555 29 135 0.0 8.0 0.00 0.71 0.71 84 1016.5
20260830215055 29 207 1.6 8.0 0.00 0.71 0.71 84 1016.5
20260830214612 29 309 1.6 6.4 0.00 0.71 0.71 84 1016.5
20260830214053 29 86 0.0 4.8 0.00 0.71 0.71 85 1016.6
20260830213555 28 216 0.0 4.8 0.00 0.71 0.71 85 1016.5
20260830213053 28 316 0.0 6.4 0.00 0.71 0.71 84 1016.5
20260830212552 28 283 0.0 6.4 0.00 0.71 0.71 84 1016.4
20260830212050 29 90 0.0 4.8 0.00 0.71 0.71 84 1016.5
20260830211550 29 340 0.0 9.7 0.00 0.71 0.71 85 1016.5
20260830211047 28 258 0.0 9.7 0.00 0.71 0.71 85 1016.4
20260830210547 28 85 0.0 6.4 0.00 0.71 0.71 86 1016.6
20260830210046 28 326 0.0 6.4 0.00 0.71 0.71 87 1016.7
20260830205546 27 324 0.0 4.8 0.00 0.71 0.71 89 1016.6
20260830205048 27 129 0.0 6.4 0.00 0.71 0.71 91 1016.7
20260830204554 26 293 0.0 6.4 0.00 0.71 0.71 92 1016.8
20260830204043 26 56 0.0 0.0 0.00 0.71 0.71 92 1016.8
20260830203543 26 56 0.0 1.6 0.00 0.71 0.71 92 1016.9
20260830203041 26 56 0.0 0.0 0.00 0.71 0.71 93 1017.0
20260830202542 25 56 0.0 0.0 0.00 0.71 0.71 93 1016.9
20260830202041 25 56 0.0 1.6 0.00 0.71 0.71 93 1017.1
20260830201540 25 56 0.0 1.6 0.03 0.71 0.71 92 1017.1
20260830201039 24 51 0.0 0.0 0.13 0.71 0.71 92 1017.3
20260830200538 24 59 0.0 3.2 0.15 0.71 0.71 91 1017.3
20260830200046 24 326 0.0 3.2 0.15 0.71 0.71 91 1017.5
20260830195538 24 211 0.0 1.6 0.15 0.71 0.71 91 1017.7
20260830195041 24 228 0.0 3.2 0.15 0.71 0.71 90 1017.8
20260830194537 24 228 0.0 3.2 0.18 0.71 0.71 90 1017.8
20260830194037 25 203 0.0 6.4 0.18 0.71 0.71 90 1017.9
20260830193535 25 113 0.0 6.4 0.20 0.71 0.71 90 1018.0
20260830193035 25 91 0.0 1.6 0.28 0.71 0.71 91 1018.0
20260830192537 25 250 0.0 1.6 0.46 0.71 0.71 91 1018.0
20260830192033 25 211 0.0 3.2 0.69 0.71 0.71 90 1017.9
20260830191534 25 221 0.0 3.2 0.71 0.71 0.71 90 1017.9
20260830191033 26 209 0.0 3.2 0.61 0.61 0.61 89 1017.9
20260830190533 26 312 1.6 4.8 0.58 0.58 0.58 90 1017.8
20260830190043 26 239 0.0 4.8 0.58 0.58 0.58 90 1017.6
20260830185532 26 252 0.0 3.2 0.58 0.58 0.58 90 1017.7
20260830185031 26 242 0.0 3.2 0.58 0.58 0.58 90 1017.7
20260830184530 26 238 0.0 6.4 0.56 0.56 0.56 89 1017.7
20260830184030 27 237 0.0 6.4 0.56 0.56 0.56 87 1017.8
20260830183529 27 137 0.0 3.2 0.53 0.53 0.53 85 1017.8
20260830183029 28 240 0.0 3.2 0.43 0.43 0.43 85 1018.0
20260830182529 30 243 0.0 1.6 0.25 0.25 0.25 83 1017.8
20260830182027 31 68 0.0 4.8 0.03 0.03 0.03 78 1017.8
20260830181527 32 310 0.0 4.8 0.00 0.00 0.00 75 1017.8
20260830181026 32 4 0.0 4.8 0.00 0.00 0.00 71 1017.9
20260830180527 33 146 0.0 8.0 0.00 0.00 0.00 69 1017.9
20260830180028 33 104 0.0 8.0 0.00 0.00 0.00 74 1018.1
20260830175522 33 232 0.0 4.8 0.00 0.00 0.00 74 1018.0
20260830175021 33 313 0.0 4.8 0.00 0.00 0.00 71 1018.1
20260830174521 33 326 0.0 4.8 0.00 0.00 0.00 71 1018.0
20260830174020 32 159 0.0 3.2 0.00 0.00 0.00 71 1018.1
20260830173519 33 297 0.0 3.2 0.00 0.00 0.00 72 1018.2
20260830173019 33 345 0.0 6.4 0.00 0.00 0.00 71 1018.2
20260830172520 33 303 1.6 6.4 0.00 0.00 0.00 69 1018.2
20260830172019 33 261 0.0 3.2 0.00 0.00 0.00 73 1018.2
20260830171514 33 96 0.0 3.2 0.00 0.00 0.00 72 1018.2
20260830171013 32 326 0.0 4.8 0.00 0.00 0.00 73 1018.3
20260830170511 32 274 0.0 9.7 0.00 0.00 0.00 72 1018.3
20260830170010 32 258 1.6 9.7 0.00 0.00 0.00 73 1018.4
20260830165610 32 34 0.0 6.4 0.00 0.00 0.00 70 1018.4
20260830165008 32 265 1.6 6.4 0.00 0.00 0.00 74 1018.4
20260830164507 32 231 1.6 6.4 0.00 0.00 0.00 76 1018.6
20260830164010 31 224 3.2 4.8 0.00 0.00 0.00 75 1018.8
20260830163506 31 302 0.0 3.2 0.00 0.00 0.00 74 1018.9
20260830163005 32 300 0.0 8.0 0.00 0.00 0.00 73 1019.0
20260830162506 32 257 1.6 8.0 0.00 0.00 0.00 73 1018.9
20260830162005 32 249 0.0 1.6 0.00 0.00 0.00 77 1018.8
20260830161504 31 250 0.0 1.6 0.00 0.00 0.00 73 1019.0
20260830161004 32 221 0.0 1.6 0.00 0.00 0.00 71 1019.1
20260830160505 32 113 0.0 1.6 0.00 0.00 0.00 68 1019.1
20260830160001 32 324 0.0 1.6 0.00 0.00 0.00 69 1019.1
20260830155600 32 147 0.0 1.6 0.00 0.00 0.00 71 1019.1
20260830155059 32 281 0.0 3.2 0.00 0.00 0.00 75 1019.2
20260830154559 31 172 0.0 3.2 0.00 0.00 0.00 74 1019.2
20260830154056 31 311 0.0 4.8 0.00 0.00 0.00 73 1019.2
20260830153556 31 313 1.6 4.8 0.00 0.00 0.00 74 1019.3
20260830153054 31 273 0.0 4.8 0.00 0.00 0.00 75 1019.3
20260830152555 31 236 0.0 4.8 0.00 0.00 0.00 77 1019.2
20260830152051 31 229 1.6 4.8 0.00 0.00 0.00 75 1019.1
20260830151550 31 245 0.0 3.2 0.00 0.00 0.00 74 1019.2
20260830151049 31 203 0.0 3.2 0.00 0.00 0.00 74 1019.3
20260830150548 31 224 1.6 3.2 0.00 0.00 0.00 73 1019.2
20260830150046 31 326 0.0 1.6 0.00 0.00 0.00 75 1019.2
20260830145547 30 214 0.0 1.6 0.00 0.00 0.00 78 1019.2
20260830145043 30 163 0.0 4.8 0.00 0.00 0.00 81 1019.2
20260830144541 30 228 0.0 4.8 0.00 0.00 0.00 77 1019.2
20260830144040 30 133 0.0 1.6 0.00 0.00 0.00 81 1019.1
20260830143541 30 229 0.0 1.6 0.00 0.00 0.00 81 1019.1
20260830143039 30 228 0.0 1.6 0.00 0.00 0.00 82 1019.1
20260830142537 29 271 0.0 1.6 0.00 0.00 0.00 83 1019.2
20260830142033 28 233 0.0 1.6 0.00 0.00 0.00 84 1019.2
20260830141531 28 138 0.0 1.6 0.00 0.00 0.00 84 1019.1
20260830141028 28 284 0.0 1.6 0.00 0.00 0.00 85 1019.1
20260830140527 27 173 0.0 3.2 0.00 0.00 0.00 86 1019.1
20260830140026 27 145 0.0 3.2 0.00 0.00 0.00 85 1019.1
20260830135524 27 243 0.0 3.2 0.00 0.00 0.00 86 1019.2
20260830135021 27 153 0.0 3.2 0.00 0.00 0.00 86 1019.1
20260830134529 26 264 0.0 4.8 0.00 0.00 0.00 87 1019.1
20260830134019 26 241 0.0 4.8 0.00 0.00 0.00 87 1019.2
20260830133517 26 123 0.0 3.2 0.00 0.00 0.00 87 1019.1
20260830133015 26 351 0.0 3.2 0.00 0.00 0.00 88 1019.1
20260830132513 26 278 0.0 3.2 0.00 0.00 0.00 89 1019.1
20260830132012 26 314 0.0 3.2 0.00 0.00 0.00 90 1019.1
20260830131509 25 53 0.0 6.4 0.00 0.00 0.00 92 1019.1
20260830131007 25 240 0.0 6.4 0.00 0.00 0.00 94 1019.1
20260830130506 25 302 0.0 3.2 0.00 0.00 0.00 95 1019.1
20260830130005 25 221 0.0 1.6 0.00 0.00 0.00 95 1019.0
20260830125505 25 303 0.0 1.6 0.00 0.00 0.00 95 1019.0
20260830125003 25 111 0.0 1.6 0.00 0.00 0.00 95 1018.9
20260830124502 25 106 0.0 0.0 0.00 0.00 0.00 95 1018.8
20260830124102 25 106 0.0 0.0 0.00 0.00 0.00 95 1018.6
20260830123600 25 106 0.0 0.0 0.00 0.00 0.00 95 1018.6
20260830123058 25 106 0.0 0.0 0.00 0.00 0.00 95 1018.5
20260830122559 24 106 0.0 0.0 0.00 0.00 0.00 95 1018.5
20260830122057 24 106 0.0 0.0 0.00 0.00 0.00 95 1018.5
20260830121556 24 106 0.0 0.0 0.00 0.00 0.00 95 1018.3
20260830121054 24 106 0.0 0.0 0.00 0.00 0.00 95 1018.5
20260830120553 24 106 0.0 1.6 0.00 0.00 0.00 95 1018.5
20260830120056 24 106 0.0 1.6 0.00 0.00 0.00 95 1018.5
20260830115552 24 354 0.0 0.0 0.00 0.00 0.00 95 1018.5
20260830115053 24 355 0.0 1.6 0.00 0.00 0.00 95 1018.5
20260830114551 24 5 0.0 1.6 0.00 0.00 0.00 95 1018.4
20260830114049 23 5 0.0 0.0 0.00 0.00 0.00 95 1018.5
20260830113548 23 5 0.0 0.0 0.00 0.00 0.00 95 1018.4
20260830113047 23 5 0.0 0.0 0.00 0.00 0.00 95 1018.1
20260830112547 23 5 0.0 0.0 0.00 0.00 0.00 95 1018.1
20260830112046 23 4 0.0 0.0 0.00 0.00 0.00 95 1018.0
20260830111546 23 4 0.0 0.0 0.00 0.00 0.00 94 1017.9
20260830111044 23 5 0.0 0.0 0.00 0.00 0.00 94 1017.8
20260830110545 23 5 0.0 0.0 0.00 0.00 0.00 94 1017.6
20260830110044 23 5 0.0 0.0 0.00 0.00 0.00 94 1017.6
20260830105546 23 4 0.0 0.0 0.00 0.00 0.00 94 1017.6
20260830105043 23 5 0.0 0.0 0.00 0.00 0.00 94 1017.6
20260830104601 23 5 0.0 0.0 0.00 0.00 0.00 94 1017.6
20260830104042 23 4 0.0 0.0 0.00 0.00 0.00 94 1017.4
20260830103541 23 4 0.0 0.0 0.00 0.00 0.00 94 1017.4
20260830103041 23 5 0.0 0.0 0.00 0.00 0.00 94 1017.4
20260830102540 23 5 0.0 0.0 0.00 0.00 0.00 94 1017.3
20260830102042 23 4 0.0 0.0 0.00 0.00 0.00 94 1017.2
20260830101539 23 4 0.0 0.0 0.00 0.00 0.00 94 1017.2
20260830101037 23 4 0.0 0.0 0.00 0.00 0.00 94 1017.2
20260830100539 23 4 0.0 0.0 0.00 0.00 0.00 94 1017.2
20260830100035 23 5 0.0 0.0 0.00 0.00 0.00 94 1017.1
20260830095537 23 5 0.0 0.0 0.00 0.00 0.00 94 1017.0
20260830095035 23 4 0.0 0.0 0.00 0.00 0.00 94 1017.1
20260830094535 23 5 0.0 0.0 0.00 0.00 0.00 94 1017.2
20260830094033 23 4 0.0 0.0 0.00 0.00 0.00 94 1017.1
20260830093532 23 5 0.0 0.0 0.00 0.00 0.00 94 1017.2
20260830093040 23 4 0.0 0.0 0.00 0.00 0.00 94 1017.2
20260830092534 23 4 0.0 0.0 0.00 0.00 0.00 94 1017.1
20260830092030 23 5 0.0 0.0 0.00 0.00 0.00 94 1017.1
20260830091530 23 5 0.0 0.0 0.00 0.00 0.00 94 1017.2
20260830091028 23 5 0.0 0.0 0.00 0.00 0.00 94 1017.2
20260830090527 23 5 0.0 0.0 0.00 0.00 0.00 94 1017.2
20260830090028 23 5 0.0 0.0 0.00 0.00 0.00 94 1017.1
20260830085527 23 5 0.0 0.0 0.00 0.00 0.00 94 1017.1
20260830085029 23 5 0.0 0.0 0.00 0.00 0.00 94 1016.9
20260830084525 23 5 0.0 0.0 0.00 0.00 0.00 94 1017.0
20260830084125 23 5 0.0 0.0 0.00 0.00 0.00 94 1017.0
20260830083526 23 4 0.0 0.0 0.00 0.00 0.00 94 1016.9
20260830083035 23 5 0.0 0.0 0.00 0.00 0.00 94 1017.0
20260830082521 24 5 0.0 0.0 0.00 0.00 0.00 94 1017.0
20260830082021 24 5 0.0 0.0 0.00 0.00 0.00 94 1017.2
20260830081520 24 4 0.0 0.0 0.00 0.00 0.00 94 1017.3
20260830081020 24 4 0.0 0.0 0.00 0.00 0.00 94 1017.6
20260830080520 24 4 0.0 0.0 0.00 0.00 0.00 94 1017.7
20260830080019 24 5 0.0 0.0 0.00 0.00 0.00 94 1017.6
20260830075519 24 5 0.0 0.0 0.00 0.00 0.00 94 1017.7
20260830075017 24 5 0.0 0.0 0.00 0.00 0.00 94 1017.8
20260830074517 24 5 0.0 0.0 0.00 0.00 0.00 94 1017.9
20260830074017 24 5 0.0 0.0 0.00 0.00 0.00 94 1017.9
20260830073516 24 5 0.0 0.0 0.00 0.00 0.00 94 1017.9
20260830073015 24 5 0.0 0.0 0.00 0.00 0.00 94 1018.0
20260830072519 24 4 0.0 0.0 0.00 0.00 0.00 94 1018.0
20260830072014 24 5 0.0 0.0 0.00 0.00 0.00 94 1018.1
20260830071518 24 4 0.0 0.0 0.00 0.00 0.00 93 1018.1
20260830071012 24 5 0.0 0.0 0.00 0.00 0.00 93 1018.2
20260830070511 24 5 0.0 0.0 0.00 0.00 0.00 93 1018.3
20260830070011 24 5 0.0 0.0 0.00 0.00 0.00 93 1018.3
20260830065508 24 5 0.0 0.0 0.00 0.00 0.00 93 1018.2
20260830065012 24 4 0.0 0.0 0.00 0.00 0.00 93 1018.3
20260830064509 24 5 0.0 0.0 0.00 0.00 0.00 93 1018.3
20260830064006 24 5 0.0 0.0 0.00 0.00 0.00 93 1018.3
20260830063505 24 5 0.0 0.0 0.00 0.00 0.00 93 1018.2
20260830063003 24 5 0.0 0.0 0.00 0.00 0.00 93 1018.1
20260830062502 24 5 0.0 0.0 0.00 0.00 0.00 93 1017.9
20260830062101 24 5 0.0 0.0 0.00 0.00 0.00 93 1017.7
20260830061600 24 5 0.0 0.0 0.00 0.00 0.00 93 1017.6
20260830061059 24 5 0.0 0.0 0.00 0.00 0.00 93 1017.6
20260830060558 24 5 0.0 0.0 0.00 0.00 0.00 93 1017.5
20260830060057 24 5 0.0 0.0 0.00 0.00 0.00 93 1017.4
20260830055556 24 5 0.0 0.0 0.00 0.00 0.00 93 1017.2
20260830055055 24 4 0.0 0.0 0.00 0.00 0.00 93 1017.2
20260830054554 24 4 0.0 0.0 0.00 0.00 0.00 92 1017.2
20260830054052 24 5 0.0 0.0 0.00 0.00 0.00 92 1017.1
20260830053556 24 4 0.0 0.0 0.00 0.00 0.00 92 1017.0
20260830053050 24 5 0.0 0.0 0.00 0.00 0.00 92 1017.1
20260830052553 24 5 0.0 0.0 0.00 0.00 0.00 92 1017.1
20260830052049 24 5 0.0 0.0 0.00 0.00 0.00 91 1017.1
20260830051549 24 5 0.0 0.0 0.00 0.00 0.00 91 1017.1
20260830051047 25 5 0.0 0.0 0.00 0.00 0.00 91 1017.0